Location: Palmerston North
(40.3500°S, 175.6170°E)
Time: 17:19:53
(UTC+13:00)

Cosmos 1862 - Pass Details

Date: 24 January 2019
Orbit: 540 x 556 km, 82.5° (Epoch: 22 February)

Event Time Altitude Azimuth Distance (km) Brightness Sun altitude
Rises 22:22:47 0° 192° (SSW) 2,755 7.9 -16.3°
Reaches altitude 10° 22:24:59 10° 195° (SSW) 1,850 6.9 -16.6°
Maximum altitude 22:29:00 61° 275° (W) 631 3.7 -17.1°
Enters shadow 22:31:29 22° 349° (N) 1,244 4.8 -17.4°
